ISR63H LLBG-LDZD

Flight info

Callsign ISR63H
Flight time N/A
Altitude 34000
Route SUVAS L53 ANIDE UL53 KOR UL613 YNN UL611 TUMBO DCT OVVER DCT RODON DCT PINUK DCT SPL
Aircraft A320/M-SDE3FGHIRWY/LB1

Departure

Time N/A
Airport Ben Gurion International Airport (LLBG)

Arrival

Time 2026-05-04 15:41
Airport Zadar Airport (LDZD)
Time Latitude Longitude Altitude Speed Heading
2026-05-04 14:48 40.39027 20.16068 36113 ft 403 kts 324°
2026-05-04 14:48 40.41282 20.13872 36124 ft 404 kts 324°
2026-05-04 14:48 40.45765 20.09507 36102 ft 404 kts 324°
2026-05-04 14:49 40.50273 20.05102 36110 ft 404 kts 324°
2026-05-04 14:49 40.54779 20.00689 36114 ft 404 kts 324°
2026-05-04 14:50 40.59291 19.96284 36123 ft 404 kts 324°
2026-05-04 14:50 40.63796 19.91866 36125 ft 404 kts 324°
2026-05-04 14:51 40.68272 19.87462 36118 ft 405 kts 324°
2026-05-04 14:51 40.72786 19.83015 36122 ft 406 kts 324°
2026-05-04 14:52 40.77308 19.78557 36111 ft 406 kts 324°
2026-05-04 14:52 40.81822 19.74098 36129 ft 405 kts 324°
2026-05-04 14:53 40.86294 19.69665 36129 ft 405 kts 324°
2026-05-04 14:53 40.90797 19.65197 36135 ft 405 kts 324°
2026-05-04 14:54 40.95304 19.60726 36136 ft 405 kts 324°
2026-05-04 14:54 40.99816 19.56247 36133 ft 406 kts 324°
2026-05-04 14:55 41.04329 19.51750 36131 ft 406 kts 324°
2026-05-04 14:55 41.08815 19.47269 36133 ft 407 kts 324°
2026-05-04 14:56 41.13330 19.42750 36125 ft 407 kts 323°
2026-05-04 14:56 41.17848 19.38224 36127 ft 407 kts 323°
2026-05-04 14:57 41.22363 19.33699 36131 ft 407 kts 323°
2026-05-04 14:57 41.26846 19.29186 36135 ft 407 kts 323°
2026-05-04 14:58 41.31360 19.24633 36130 ft 407 kts 323°
2026-05-04 14:58 41.35878 19.20086 36132 ft 407 kts 323°
2026-05-04 14:59 41.40391 19.15531 36137 ft 407 kts 323°
2026-05-04 15:00 41.47023 19.08540 36112 ft 408 kts 318°
2026-05-04 15:00 41.51170 19.03378 36116 ft 408 kts 318°
2026-05-04 15:01 41.57392 18.95620 36120 ft 408 kts 318°
2026-05-04 15:01 41.61544 18.90437 36121 ft 409 kts 318°
2026-05-04 15:02 41.65670 18.85283 36131 ft 409 kts 318°
2026-05-04 15:02 41.69825 18.80081 36128 ft 409 kts 318°
2026-05-04 15:03 41.73977 18.74871 36112 ft 409 kts 317°
2026-05-04 15:03 41.78127 18.69650 36122 ft 410 kts 317°
2026-05-04 15:04 41.82253 18.64453 36128 ft 410 kts 317°
2026-05-04 15:04 41.86398 18.59201 36130 ft 410 kts 317°
2026-05-04 15:05 41.90477 18.53853 36130 ft 410 kts 316°
2026-05-04 15:05 41.94476 18.48385 36135 ft 411 kts 315°
2026-05-04 15:06 41.98453 18.42941 36129 ft 411 kts 315°
2026-05-04 15:07 42.04500 18.34750 36120 ft 411 kts 315°
2026-05-04 15:07 42.08529 18.29280 36125 ft 412 kts 315°
2026-05-04 15:08 42.12552 18.23794 36137 ft 412 kts 315°
2026-05-04 15:08 42.16553 18.18344 36139 ft 412 kts 315°
2026-05-04 15:09 42.20578 18.12840 36129 ft 412 kts 315°
2026-05-04 15:09 42.24600 18.07316 36140 ft 413 kts 315°
2026-05-04 15:10 42.30643 17.99027 36145 ft 413 kts 315°
2026-05-04 15:11 42.36654 17.90757 36148 ft 413 kts 315°
2026-05-04 15:11 42.40678 17.85202 36145 ft 413 kts 315°
2026-05-04 15:12 42.44697 17.79640 36140 ft 413 kts 315°
2026-05-04 15:12 42.48689 17.74102 36131 ft 414 kts 315°
2026-05-04 15:13 42.52708 17.68517 36135 ft 414 kts 315°
2026-05-04 15:13 42.56729 17.62927 36133 ft 414 kts 315°
2026-05-04 15:14 42.60750 17.57332 36132 ft 414 kts 315°
2026-05-04 15:14 42.64746 17.51765 36138 ft 414 kts 315°
2026-05-04 15:15 42.68758 17.46140 36129 ft 414 kts 315°
2026-05-04 15:15 42.72762 17.40500 36129 ft 415 kts 315°
2026-05-04 15:16 42.78786 17.32043 36116 ft 415 kts 314°
2026-05-04 15:17 42.84786 17.23593 36120 ft 416 kts 314°
2026-05-04 15:17 42.90811 17.15071 36124 ft 416 kts 314°
2026-05-04 15:18 42.94834 17.09380 36127 ft 417 kts 314°
2026-05-04 15:19 43.00840 17.00844 36115 ft 418 kts 314°
2026-05-04 15:19 43.06872 16.92244 36114 ft 418 kts 314°
2026-05-04 15:20 43.10896 16.86489 35814 ft 418 kts 314°
2026-05-04 15:20 43.12905 16.83612 35559 ft 418 kts 314°
2026-05-04 15:20 43.14916 16.80728 35309 ft 419 kts 314°
2026-05-04 15:21 43.16902 16.77878 35057 ft 419 kts 314°
2026-05-04 15:21 43.18915 16.74989 34831 ft 419 kts 314°
2026-05-04 15:21 43.22944 16.69195 34336 ft 421 kts 314°
2026-05-04 15:22 43.24969 16.66279 34090 ft 424 kts 314°
2026-05-04 15:22 43.27003 16.63348 33818 ft 425 kts 314°
2026-05-04 15:22 43.31092 16.57450 33280 ft 427 kts 313°
2026-05-04 15:23 43.33139 16.54491 33016 ft 428 kts 313°
2026-05-04 15:23 43.35163 16.51562 32755 ft 429 kts 313°
2026-05-04 15:23 43.37214 16.48590 32492 ft 429 kts 313°
2026-05-04 15:23 43.39268 16.45605 32244 ft 430 kts 313°
2026-05-04 15:24 43.43386 16.39612 31739 ft 432 kts 313°
2026-05-04 15:24 43.47524 16.33579 30727 ft 436 kts 313°
2026-05-04 15:25 43.49455 16.30332 29772 ft 440 kts 305°
2026-05-04 15:25 43.51008 16.26742 28767 ft 444 kts 297°
2026-05-04 15:25 43.52376 16.22910 27726 ft 448 kts 297°
2026-05-04 15:26 43.55147 16.15147 25497 ft 456 kts 297°
2026-05-04 15:26 43.56555 16.11202 24339 ft 461 kts 297°
2026-05-04 15:26 43.59385 16.03257 22341 ft 458 kts 296°
2026-05-04 15:27 43.60777 15.99337 21464 ft 452 kts 296°
2026-05-04 15:27 43.63500 15.91653 19746 ft 446 kts 296°
2026-05-04 15:28 43.66208 15.84016 18007 ft 440 kts 295°
2026-05-04 15:28 43.67544 15.80230 17154 ft 436 kts 295°
2026-05-04 15:28 43.70168 15.72756 15493 ft 430 kts 295°
2026-05-04 15:29 43.71466 15.69048 14708 ft 428 kts 295°
2026-05-04 15:30 43.78400 15.56247 11715 ft 407 kts 315°
2026-05-04 15:30 43.83914 15.48807 10842 ft 331 kts 314°
2026-05-04 15:31 43.87054 15.44550 10543 ft 306 kts 314°
2026-05-04 15:31 43.88547 15.42524 10300 ft 303 kts 314°
2026-05-04 15:32 43.93119 15.36695 9757 ft 296 kts 321°
2026-05-04 15:32 43.96341 15.33164 9496 ft 294 kts 321°
2026-05-04 15:33 43.99596 15.29580 8759 ft 301 kts 320°
2026-05-04 15:34 44.04438 15.24228 7804 ft 297 kts 320°
2026-05-04 15:34 44.06060 15.22442 7417 ft 297 kts 321°
2026-05-04 15:34 44.09289 15.18893 6680 ft 287 kts 321°
2026-05-04 15:35 44.12220 15.15667 5952 ft 252 kts 320°
2026-05-04 15:35 44.13568 15.14173 5625 ft 243 kts 320°
2026-05-04 15:35 44.14974 15.13019 5294 ft 236 kts 342°
2026-05-04 15:36 44.18000 15.13777 4607 ft 223 kts 38°
2026-05-04 15:36 44.19017 15.15384 4294 ft 222 kts 54°
2026-05-04 15:36 44.19908 15.17159 3960 ft 224 kts 54°
2026-05-04 15:37 44.20664 15.19014 3541 ft 217 kts 76°
2026-05-04 15:37 44.20587 15.21035 3105 ft 209 kts 116°
2026-05-04 15:37 44.19723 15.22633 2773 ft 208 kts 136°
2026-05-04 15:37 44.18713 15.23978 2389 ft 200 kts 137°
2026-05-04 15:38 44.17714 15.25304 1995 ft 195 kts 136°
2026-05-04 15:38 44.16766 15.26597 1699 ft 186 kts 136°
2026-05-04 15:38 44.15879 15.27808 1445 ft 170 kts 136°
2026-05-04 15:38 44.15089 15.28884 1243 ft 151 kts 136°
2026-05-04 15:39 44.14360 15.29876 1027 ft 145 kts 137°
2026-05-04 15:39 44.13641 15.30850 842 ft 144 kts 138°
2026-05-04 15:39 44.12236 15.32774 453 ft 141 kts 138°
2026-05-04 15:40 44.11535 15.33725 294 ft 140 kts 139°
2026-05-04 15:40 44.10895 15.34577 263 ft 96 kts 135°
2026-05-04 15:40 44.10549 15.35046 266 ft 61 kts 135°
2026-05-04 15:40 44.10263 15.35431 267 ft 50 kts 136°
2026-05-04 15:41 44.10105 15.35645 270 ft 19 kts 135°
2026-05-04 15:41 44.10044 15.35711 270 ft 11 kts 177°
2026-05-04 15:41 44.09986 15.35649 270 ft 10 kts 226°
2026-05-04 15:41 44.09931 15.35570 270 ft 13 kts 226°
2026-05-04 15:42 44.09846 15.35531 270 ft 15 kts 172°
2026-05-04 15:42 44.09767 15.35540 270 ft 9 kts 178°
2026-05-04 15:42 44.09693 15.35541 270 ft 10 kts 179°
2026-05-04 15:42 44.09637 15.35534 270 ft 8 kts 212°
2026-05-04 15:43 44.09634 15.35468 270 ft 4 kts 292°
2026-05-04 15:43 44.09661 15.35439 270 ft 4 kts 325°
2026-05-04 15:43 44.09670 15.35430 270 ft 0 kts 325°
2026-05-04 15:44 44.09670 15.35431 270 ft 0 kts 324°